Flag for U.S.A. Weather past 2 weeks in Newport News, Virginia, U.S.A.

Now
75 °F

Rain. Partly sunny.


Feels Like: 74 °F
Forecast: 67 / 86 °F
Wind: 8 mph from East

Location: Newport News / Williamsburg International Airport

Current Time: Jul 24, 2014 at 9:35:26 PM

Latest Report: Jul 24, 2014 at 8:54 PM


Visibility: 7 mi

Pressure: 29.89 "Hg

Humidity: 88%

Dew point: 71 °F

Location of Newport NewsLocation

Historic Weather in Newport News — Graph

°F

Newport News temperature yesterday

Maximum temperature yesterday: 94 °F (at 2:54 PM)
Minimum temperature yesterday: 76 °F (at 12:54 AM)
Average temperature yesterday: 88 °F

Past Weeks' High & Low Weather Summary

 TemperatureHumidityPressure
High97 °F (Jul 14, 2:54 PM)90% (Jul 12, 3:02 AM)30.22 "Hg (Jul 12, 3:02 AM)
Low64 °F (Jul 18, 4:54 AM)37% (Jul 18, 12:54 PM)29.73 "Hg (Jul 15, 5:54 PM)
Average80 °F71%30.04 "Hg
* Reported Jul 9 7:54 PM — Jul 24 7:54 PM, Newport News, Weather by CustomWeather, © 2014

Note: Actual official high and low records may vary slightly from our data, if they occured in-between our weather recording intervals... More about our weather records

Advertising

Newport News weather history for previous 24 hours

 ConditionsComfort  
Time TempWeatherWind HumidityBarometerVisibility
7:54 PM
Jul 24
74 °FRain. Fog.8 mph88%29.90 "Hg5 mi
6:54 PM77 °FLight rain. Mostly cloudy.10 mph79%29.87 "Hg10 mi
5:54 PM80 °FPartly sunny.8 mph79%29.85 "Hg10 mi
5:01 PM78 °FMostly cloudy.7 mph84%29.86 "Hg6 mi
3:54 PM87 °FScattered clouds.7 mph63%29.86 "Hg10 mi
3:01 PM86 °FBroken clouds.6 mph63%29.87 "Hg10 mi
2:54 PM85 °FBroken clouds.3 mph68%29.87 "Hg10 mi
1:54 PM83 °FPartly sunny.3 mph72%29.88 "Hg9 mi
12:54 PM81 °FLight rain. Mostly cloudy.5 mph79%29.88 "Hg5 mi
11:54 AM82 °FLight rain. Partly sunny.5 mph77%29.89 "Hg9 mi
10:54 AM81 °FPartly sunny.3 mph77%29.88 "Hg9 mi
9:54 AM78 °FRain. Mostly cloudy.6 mph84%29.89 "Hg3 mi
9:01 AM77 °FLight rain. More clouds than sun.9 mph85%29.89 "Hg1 mi
7:54 AM80 °FPartly sunny.12 mph79%29.86 "Hg10 mi
6:54 AM81 °FClear.6 mph79%29.84 "Hg10 mi
5:54 AM80 °FOvercast.5 mph81%29.83 "Hg10 mi
4:54 AM81 °FClear.8 mph79%29.83 "Hg10 mi
3:54 AM81 °FPassing clouds.8 mph79%29.83 "Hg10 mi
2:54 AM83 °FPartly cloudy.10 mph72%29.85 "Hg10 mi
1:54 AM84 °FPassing clouds.9 mph70%29.85 "Hg10 mi
12:54 AM84 °FPassing clouds.9 mph72%29.86 "Hg10 mi
11:54 PM
Jul 23
85 °FPassing clouds.9 mph70%29.87 "Hg10 mi
10:54 PM86 °FClear.13 mph67%29.87 "Hg10 mi
9:54 PM87 °FClear.10 mph65%29.88 "Hg10 mi
Weather by CustomWeather, © 2014

See weather overviewHow to use our weather pages